Location: Caltech
(34.1382°N, 118.1253°W)
Time: 04:34:53
(UTC-07:00)

Uribyol 2 - Visible Passes

Search period start: 02 September 2014 00:00
Search period end: 12 September 2014 00:00
Orbit: 783 x 798 km, 98.7° (Epoch: 01 September)

Date Brightness Start Highest point End Pass type
(mag) Time Alt. Az. Time Alt. Az. Time Alt. Az.
02 Sep ? 02:10:13 10° NE 02:10:36 12° NE 02:10:36 12° NE visible
02 Sep ? 03:49:07 10° N 03:51:20 23° NNW 03:51:20 23° NNW visible
03 Sep ? 03:19:23 10° N 03:21:30 25° N 03:21:30 25° N visible
04 Sep ? 02:50:04 10° NNE 02:51:41 20° NNE 02:51:41 20° NNE visible
04 Sep ? 04:31:26 10° NNW 04:32:24 12° NW 04:32:24 12° NW visible
05 Sep ? 02:21:13 10° NE 02:21:51 13° NE 02:21:51 13° NE visible
05 Sep ? 04:00:45 10° NNW 04:02:35 19° NNW 04:02:35 19° NNW visible
06 Sep ? 03:30:51 10° N 03:32:45 22° N 03:32:45 22° N visible
07 Sep ? 03:01:23 10° NNE 03:02:56 20° NNE 03:02:56 20° NNE visible
08 Sep ? 02:32:19 10° NNE 02:33:06 14° NE 02:33:06 14° NE visible
08 Sep ? 04:12:30 10° NNW 04:13:50 15° NNW 04:13:50 15° NNW visible
09 Sep ? 03:42:22 10° N 03:44:00 20° NNW 03:44:00 20° NNW visible
10 Sep ? 03:12:45 10° N 03:14:10 19° N 03:14:10 19° N visible
11 Sep ? 02:43:31 10° NNE 02:44:21 15° NNE 02:44:21 15° NNE visible
11 Sep ? 04:24:23 10° NNW 04:25:04 12° NNW 04:25:04 12° NNW visible
